Location: Nebraska Star Party
(42.6000°N, 100.8833°W)
Time: 16:35:54
(UTC-06:00)

Amateur Radio Satellites - All Passes

Search period start: 31 January 2015 16:05
Search period end: 01 February 2015 16:05
Location: Nebraska Star Party, 42.6000°N, 100.8833°W

Satellite Date Start Highest point End Downlink Frequencies (MHz)
Time Altitude Azimuth
AO-7 31 Jan 16:10:57 16:19:19 75° 254° (WSW) 16:27:44 29.400- 29.500
MOZHAYETS 4 31 Jan 16:18:31 16:19:35 11° 86° (E) 16:20:58
Cubesat XI-IV 31 Jan 16:23:26 16:23:43 10° 56° (ENE) 16:24:17 437.490
JAS-2 31 Jan 16:26:19 16:31:41 69° 74° (ENE) 16:36:52 435.910
DANDE 31 Jan 16:28:15 16:34:08 39° 271° (W) 16:38:33 436.750
CUTE-I 31 Jan 16:39:58 16:42:42 15° 60° (ENE) 16:45:39 437.470
O/OREOS (USA 219) 31 Jan 16:40:22 16:44:50 74° 294° (WNW) 16:49:23 437.305
CUSAT 1 31 Jan 16:44:40 16:49:01 22° 277° (W) 16:52:26 437.405
HORYU 2 31 Jan 16:48:39 16:50:20 12° 272° (W) 16:51:44 437.375
M-CUBED/EXP-1 PRIME 31 Jan 17:09:04 17:12:02 29° 294° (WNW) 17:15:03 437.505
STARS 31 Jan 17:22:00 17:23:54 12° 298° (WNW) 17:25:36 437.465
AUBIESAT-1 31 Jan 17:40:55 17:42:57 15° 298° (WNW) 17:44:54 437.475
MOZHAYETS 4 31 Jan 17:52:53 17:57:29 75° 285° (WNW) 18:02:02
Cubesat XI-IV 31 Jan 17:57:40 18:02:56 69° 74° (ENE) 18:08:17 437.490
AO-7 31 Jan 18:09:22 18:13:45 14° 275° (W) 18:17:30 29.400- 29.500
JAS-2 31 Jan 18:14:36 18:17:28 14° 271° (W) 18:20:00 435.910
CUTE-I 31 Jan 18:16:50 18:22:09 83° 254° (WSW) 18:27:33 437.470
CUBESAT XI-V 31 Jan 18:16:55 18:19:40 16° 89° (E) 18:22:37 437.345
SO-50 31 Jan 18:19:10 18:23:42 36° 47° (NE) 18:28:17 436.795
PRISM 31 Jan 18:48:51 18:52:49 41° 99° (E) 18:56:47 437.425
HO-68 31 Jan 19:08:50 19:14:05 23° 58° (ENE) 19:19:33 435.675
GOMX 1 31 Jan 19:09:38 19:11:14 12° 58° (ENE) 19:13:08 467.674
YUBILEINY 31 Jan 19:22:36 19:30:40 46° 89° (E) 19:38:53 435.215
BRITE-PL 31 Jan 19:25:16 19:29:10 22° 64° (ENE) 19:33:24 437.365/2234.400
STRAND 1 31 Jan 19:26:04 19:31:06 52° 100° (E) 19:36:09 437.568
CANX-2 31 Jan 19:29:40 19:31:51 14° 65° (ENE) 19:34:13 2200.000
Cubesat XI-IV 31 Jan 19:40:26 19:43:40 16° 272° (W) 19:46:40 437.490
CUTE 1.7 + AOD 2 31 Jan 19:52:13 19:55:28 22° 68° (ENE) 19:58:49 437.475
CUBESAT XI-V 31 Jan 19:52:56 19:57:33 55° 287° (WNW) 20:02:09 437.345
SO-50 31 Jan 19:59:49 20:04:15 33° 245° (WSW) 20:08:36 436.795
Oscar 11 31 Jan 20:06:27 20:06:45 10° 62° (ENE) 20:07:18 145.826/435.025
CINEMA 3 31 Jan 20:11:29 20:14:41 18° 64° (ENE) 20:18:04 145.822/145.860
SEEDS 31 Jan 20:18:20 20:22:11 35° 71° (ENE) 20:26:04 437.485
PRISM 31 Jan 20:25:13 20:28:05 18° 294° (WNW) 20:30:50 437.425
COMPASS 1 31 Jan 20:40:38 20:44:43 50° 73° (ENE) 20:48:50 437.405
UKube-1 31 Jan 20:41:13 20:43:32 15° 63° (ENE) 20:46:02 .
DOVE 4 31 Jan 20:42:46 20:47:45 56° 73° (ENE) 20:52:59 437.250
GOMX 1 31 Jan 20:43:19 20:48:27 77° 75° (ENE) 20:53:55 467.674
DELFI C3 31 Jan 20:45:33 20:48:29 20° 68° (ENE) 20:51:31 145.870
HO-68 31 Jan 20:54:03 21:01:12 76° 256° (WSW) 21:08:23 435.675
ISS 31 Jan 20:56:00 20:58:42 24° 136° (SE) 21:01:27 145.825
ZACube-1 31 Jan 21:00:20 21:03:41 21° 66° (ENE) 21:07:08 437.345
BRITE-PL 31 Jan 21:02:14 21:07:15 53° 262° (W) 21:12:41 437.365/2234.400
CANX-2 31 Jan 21:03:09 21:07:24 58° 260° (W) 21:11:39 2200.000
DX 1 31 Jan 21:03:57 21:07:30 26° 68° (ENE) 21:11:10 434.975-435.025
CUBEBUG 2 31 Jan 21:03:59 21:08:09 31° 69° (ENE) 21:12:24 437.445
AAUSAT CUBESAT 2 31 Jan 21:04:40 21:08:52 83° 79° (E) 21:13:06 437.432
STRAND 1 31 Jan 21:06:08 21:09:59 21° 296° (WNW) 21:13:43 437.568
FUNcube-1 31 Jan 21:10:53 21:14:37 25° 68° (ENE) 21:18:27 145.935
YUBILEINY 31 Jan 21:19:35 21:27:40 40° 290° (WNW) 21:35:42 435.215
CUTE 1.7 + AOD 2 31 Jan 21:27:19 21:31:15 34° 264° (W) 21:35:10 437.475
50 SAT 31 Jan 21:28:51 21:31:11 15° 65° (ENE) 21:33:41 437.505
UWE-3 31 Jan 21:37:38 21:42:13 57° 74° (ENE) 21:46:51 435.000/436.395/437.385
Oscar 11 31 Jan 21:37:59 21:42:21 86° 257° (WSW) 21:46:43 145.826/435.025
AISAT 31 Jan 21:41:41 21:45:18 25° 67° (ENE) 21:49:01 437.250
CINEMA 3 31 Jan 21:46:30 21:51:26 62° 261° (W) 21:56:28 145.822/145.860
ESTCUBE 1 31 Jan 21:54:39 21:57:14 16° 64° (ENE) 21:59:59 437.505/2401.250
SEEDS 31 Jan 21:54:52 21:58:09 21° 268° (W) 22:01:20 437.485
VELOX 1 31 Jan 22:07:45 22:11:57 44° 71° (ENE) 22:16:13 145.980
CUBEBUG 1 31 Jan 22:08:49 22:11:52 19° 66° (ENE) 22:15:03 437.445
UKube-1 31 Jan 22:15:02 22:19:18 58° 259° (W) 22:23:35 .
HUMSAT D 31 Jan 22:16:11 22:20:30 67° 75° (ENE) 22:24:50 437.325/437.525
COMPASS 1 31 Jan 22:18:26 22:20:48 14° 271° (W) 22:22:59 437.405
DELFI C3 31 Jan 22:19:48 22:23:33 34° 263° (W) 22:27:17 145.870
DOVE 4 31 Jan 22:22:17 22:25:58 19° 271° (W) 22:29:34 437.250
GOMX 1 31 Jan 22:24:32 22:27:21 14° 275° (W) 22:29:57 467.674
AIST 1 31 Jan 22:26:30 22:30:45 51° 78° (ENE) 22:35:03
ISS 31 Jan 22:31:53 22:35:03 44° 332° (NNW) 22:38:14 145.825
POPSAT HIP 1 31 Jan 22:32:41 22:33:58 11° 88° (E) 22:35:30 437.405
DUCHIFAT 1 31 Jan 22:33:35 22:34:55 11° 88° (E) 22:36:30 145.980
ZACube-1 31 Jan 22:35:22 22:39:48 44° 262° (W) 22:44:13 437.345
DX 1 31 Jan 22:39:49 22:43:41 30° 264° (W) 22:47:33 434.975-435.025
CUBEBUG 2 31 Jan 22:40:40 22:44:51 29° 266° (W) 22:49:00 437.445
FUNcube-1 31 Jan 22:46:38 22:50:51 34° 264° (W) 22:55:02 145.935
HO-68 31 Jan 22:47:15 22:50:18 12° 276° (W) 22:52:49 435.675
UNISAT 6 31 Jan 22:48:17 22:52:09 29° 95° (E) 22:55:58 437.425
50 SAT 31 Jan 23:01:56 23:05:57 49° 261° (W) 23:10:00 437.505
NANOSAT C BR1 31 Jan 23:06:59 23:10:39 27° 95° (E) 23:14:21 145.865
UWE-3 31 Jan 23:16:16 23:19:11 16° 271° (W) 23:21:56 435.000/436.395/437.385
AISAT 31 Jan 23:17:47 23:21:49 32° 264° (W) 23:25:51 437.250
SPROUT 31 Jan 23:18:17 23:21:49 25° 68° (ENE) 23:25:26 437.525
QB50P2 31 Jan 23:22:43 23:26:48 41° 98° (E) 23:30:53 145.880/145.840
ANTELSAT 31 Jan 23:24:08 23:28:35 73° 101° (E) 23:32:54 437.575/2403.000
BUGSAT 1 31 Jan 23:27:43 23:31:40 36° 97° (E) 23:35:38 437.445
ESTCUBE 1 31 Jan 23:29:18 23:33:43 56° 260° (W) 23:38:10 437.505/2401.250
TIGRISAT 31 Jan 23:30:09 23:34:37 83° 103° (ESE) 23:38:57 435.000
QB50P1 31 Jan 23:30:56 23:35:09 50° 99° (E) 23:39:20 145.935-145.965
GONETS M04 31 Jan 23:37:43 23:38:27 10° 74° (ENE) 23:39:57
CUBEBUG 1 31 Jan 23:43:51 23:47:59 41° 262° (W) 23:52:10 437.445
TISAT 1 31 Jan 23:44:48 23:48:52 47° 73° (ENE) 23:53:00 437.305
VELOX 1 31 Jan 23:45:44 23:48:49 18° 269° (W) 23:51:48 145.980
POLYITAN 1 31 Jan 23:47:38 23:51:59 80° 102° (ESE) 23:56:16 437.675
HUMSAT D 31 Jan 23:55:13 23:56:50 11° 273° (W) 23:58:12 437.325/437.525
SWISSCUBE 31 Jan 23:55:24 23:57:23 13° 61° (ENE) 23:59:35 437.505
AIST 1 01 Feb 00:05:42 00:08:03 14° 274° (W) 00:10:12
POPSAT HIP 1 01 Feb 00:06:07 00:10:25 66° 286° (WNW) 00:14:40 437.405
DUCHIFAT 1 01 Feb 00:07:02 00:11:19 65° 286° (WNW) 00:15:33 145.980
BEESAT 01 Feb 00:09:39 00:12:30 16° 63° (ENE) 00:15:31 436.000
ISS 01 Feb 00:09:46 00:12:08 18° 352° (N) 00:14:30 145.825
ITUPSAT 1 01 Feb 00:15:06 00:18:13 18° 64° (ENE) 00:21:28 437.325
UNISAT 6 01 Feb 00:25:09 00:28:53 26° 292° (WNW) 00:32:29 437.425
NANOSAT C BR1 01 Feb 00:42:49 00:46:30 27° 291° (WNW) 00:50:05 145.865
SPROUT 01 Feb 00:54:00 00:57:50 30° 265° (W) 01:01:39 437.525
QB50P2 01 Feb 00:59:23 01:02:28 19° 294° (WNW) 01:05:26 145.880/145.840
ANTELSAT 01 Feb 01:03:02 01:04:50 12° 298° (WNW) 01:06:24 437.575/2403.000
BUGSAT 1 01 Feb 01:03:40 01:06:59 22° 293° (WNW) 01:10:12 437.445
QB50P1 01 Feb 01:07:59 01:10:41 16° 295° (WNW) 01:13:14 145.935-145.965
TIGRISAT 01 Feb 01:09:36 01:10:45 11° 299° (WNW) 01:11:40 435.000
O/OREOS (USA 219) 01 Feb 01:10:47 01:14:40 26° 57° (ENE) 01:18:34 437.305
KKS-1 01 Feb 01:19:50 01:22:30 16° 64° (ENE) 01:25:20 437.445
TISAT 1 01 Feb 01:22:23 01:25:02 15° 270° (W) 01:27:32 437.305
GONETS M04 01 Feb 01:25:08 01:33:41 61° 92° (E) 01:42:15
POLYITAN 1 01 Feb 01:26:08 01:27:21 11° 298° (WNW) 01:28:21 437.675
SWISSCUBE 01 Feb 01:29:56 01:34:42 80° 258° (WSW) 01:39:29 437.505
Oscar 19 01 Feb 01:44:55 01:49:39 36° 96° (E) 01:54:23 437.125/150
BEESAT 01 Feb 01:45:14 01:49:56 61° 259° (W) 01:54:40 436.000
ISS 01 Feb 01:46:56 01:49:28 20° 12° (NNE) 01:52:02 145.825
ITUPSAT 1 01 Feb 01:51:05 01:55:45 54° 260° (W) 02:00:26 437.325
BEESAT 2 01 Feb 02:00:23 02:04:20 47° 118° (ESE) 02:08:22 435.950
ITAMSAT 1 01 Feb 02:08:11 02:12:06 22° 92° (E) 02:16:08 435.822/435.867
BEESAT 3 01 Feb 02:11:15 02:15:19 71° 121° (ESE) 02:19:29 437.485
AIST 2 01 Feb 02:12:23 02:15:56 27° 114° (ESE) 02:19:36 435.215
M-CUBED/EXP-1 PRIME 01 Feb 02:24:22 02:27:42 28° 66° (ENE) 02:30:53 437.505
CUSAT 1 01 Feb 02:29:52 02:32:29 12° 79° (ENE) 02:35:43 437.405
STARS 01 Feb 02:41:04 02:45:29 71° 75° (ENE) 02:49:58 437.465
O/OREOS (USA 219) 01 Feb 02:49:59 02:54:09 34° 255° (WSW) 02:58:16 437.305
KKS-1 01 Feb 02:54:21 02:58:45 55° 260° (W) 03:03:13 437.445
AUBIESAT-1 01 Feb 02:54:30 02:58:18 57° 70° (ENE) 03:01:51 437.475
HORYU 2 01 Feb 03:01:23 03:03:14 13° 89° (E) 03:05:17 437.375
MOZHAYETS 4 01 Feb 03:21:23 03:23:17 13° 62° (ENE) 03:25:23
Gurwin Techsat 1B 01 Feb 03:22:03 03:27:23 72° 101° (ESE) 03:32:42 435.225
ISS 01 Feb 03:23:07 03:26:25 67° 33° (NNE) 03:29:42 145.825
GONETS M04 01 Feb 03:23:35 03:31:11 31° 294° (WNW) 03:38:33
Oscar 19 01 Feb 03:24:30 03:28:54 29° 293° (WNW) 03:33:12 437.125/150
BEESAT 2 01 Feb 03:39:35 03:42:49 21° 317° (NW) 03:46:01 435.950
RS-15 01 Feb 03:41:07 03:49:33 28° 105° (ESE) 03:58:25 29.354- 29.394
ITAMSAT 1 01 Feb 03:46:52 03:51:55 49° 290° (WNW) 03:56:55 435.822/435.867
AIST 2 01 Feb 03:50:33 03:54:28 34° 312° (NW) 03:58:25 435.215
BEESAT 3 01 Feb 03:51:20 03:53:58 16° 321° (NW) 03:56:33 437.485
DANDE 01 Feb 03:53:52 04:01:39 45° 91° (E) 04:09:40 436.750
M-CUBED/EXP-1 PRIME 01 Feb 03:59:40 04:02:44 21° 259° (W) 04:05:33 437.505
CUSAT 1 01 Feb 04:06:08 04:14:17 61° 94° (E) 04:22:23 437.405
AO-7 01 Feb 04:12:08 04:19:36 36° 96° (E) 04:27:10 29.400- 29.500
PCSat 01 Feb 04:17:10 04:22:32 68° 116° (ESE) 04:27:57 145.827
STARS 01 Feb 04:21:04 04:22:34 11° 273° (W) 04:23:48 437.465
AUBIESAT-1 01 Feb 04:32:56 04:33:33 10° 264° (W) 04:33:57 437.475
HORYU 2 01 Feb 04:36:00 04:40:25 62° 286° (WNW) 04:44:46 437.375
MOZHAYETS 4 01 Feb 04:55:24 05:00:00 74° 258° (WSW) 05:04:35
ISS 01 Feb 05:00:30 05:02:35 15° 227° (SW) 05:04:34 145.825
Gurwin Techsat 1B 01 Feb 05:03:29 05:06:50 17° 299° (WNW) 05:10:00 435.225
STRAND 1 01 Feb 05:07:53 05:09:16 11° 58° (ENE) 05:10:55 437.568
JAS-2 01 Feb 05:17:39 05:23:23 59° 101° (E) 05:29:51 435.910
CUBESAT XI-V 01 Feb 05:21:32 05:24:28 17° 65° (ENE) 05:27:33 437.345
YUBILEINY 01 Feb 05:31:59 05:38:36 24° 62° (ENE) 05:45:32 435.215
DANDE 01 Feb 05:36:59 05:45:08 48° 289° (WNW) 05:53:16 436.750
PRISM 01 Feb 05:40:18 05:44:00 34° 70° (ENE) 05:47:46 437.425
RS-15 01 Feb 05:49:57 06:00:54 79° 306° (NW) 06:12:01 29.354- 29.394
CUSAT 1 01 Feb 05:50:10 05:57:45 35° 293° (WNW) 06:05:00 437.405
PCSat 01 Feb 06:02:17 06:06:30 22° 317° (NW) 06:10:39 145.827
AO-7 01 Feb 06:04:41 06:12:43 53° 296° (WNW) 06:20:39 29.400- 29.500
Cubesat XI-IV 01 Feb 06:14:48 06:19:12 26° 93° (E) 06:23:42 437.490
CUTE-I 01 Feb 06:33:28 06:38:26 37° 97° (E) 06:43:26 437.470
STRAND 1 01 Feb 06:42:38 06:47:44 81° 73° (ENE) 06:52:53 437.568
CUBESAT XI-V 01 Feb 06:57:04 07:01:33 52° 261° (W) 07:06:05 437.345
JAS-2 01 Feb 07:03:46 07:08:15 23° 295° (WNW) 07:12:57 435.910
PRISM 01 Feb 07:16:35 07:19:41 20° 267° (W) 07:22:40 437.425
YUBILEINY 01 Feb 07:27:46 07:36:34 79° 264° (W) 07:45:21 435.215
DANDE 01 Feb 07:28:30 07:30:58 11° 310° (NW) 07:32:46 436.750
PHONESAT 2.4 01 Feb 07:44:28 07:46:33 15° 150° (SSE) 07:48:43 2401.200-2431.200
Cubesat XI-IV 01 Feb 07:54:26 07:59:30 43° 291° (WNW) 08:04:32 437.490
AO-7 01 Feb 08:00:12 08:03:48 13° 317° (NW) 08:07:00 29.400- 29.500
VERMONT LUNAR 01 Feb 08:02:56 08:05:56 28° 158° (SSE) 08:08:58 437.305
RS-15 01 Feb 08:06:01 08:15:24 30° 335° (NNW) 08:24:50 29.354- 29.394
CUTE-I 01 Feb 08:13:46 08:18:26 30° 294° (WNW) 08:23:01 437.470
HO-68 01 Feb 08:22:13 08:27:05 20° 89° (E) 08:32:16 435.675
STRAND 1 01 Feb 08:25:33 08:27:41 12° 273° (W) 08:29:31 437.568
DOVE 4 01 Feb 08:43:15 08:46:11 16° 87° (E) 08:49:14 437.250
GOMX 1 01 Feb 08:45:43 08:49:58 24° 90° (E) 08:54:09 467.674
CANX-2 01 Feb 08:48:36 08:51:54 22° 93° (E) 08:55:17 2200.000
AAUSAT CUBESAT 2 01 Feb 08:49:21 08:51:02 12° 88° (E) 08:52:56 437.432
BRITE-PL 01 Feb 09:06:32 09:12:04 54° 98° (E) 09:17:20 437.365/2234.400
CUTE 1.7 + AOD 2 01 Feb 09:11:49 09:15:44 36° 97° (E) 09:19:39 437.475
PHONESAT 2.4 01 Feb 09:21:11 09:24:37 43° 165° (SSE) 09:28:04 2401.200-2431.200
Oscar 11 01 Feb 09:25:59 09:28:37 16° 90° (E) 09:31:25 145.826/435.025
YUBILEINY 01 Feb 09:27:20 09:32:07 15° 283° (WNW) 09:36:19 435.215
POPSAT HIP 1 01 Feb 09:27:30 09:28:27 11° 62° (ENE) 09:29:38 437.405
DUCHIFAT 1 01 Feb 09:28:08 09:29:04 11° 62° (ENE) 09:30:14 145.980
UWE-3 01 Feb 09:30:19 09:31:02 10° 86° (E) 09:32:01 435.000/436.395/437.385
SEEDS 01 Feb 09:37:36 09:41:46 61° 100° (E) 09:45:54 437.485
VERMONT LUNAR 01 Feb 09:40:19 09:43:45 59° 175° (S) 09:47:12 437.305
CINEMA 3 01 Feb 09:41:42 09:45:57 31° 94° (E) 09:50:04 145.822/145.860
UNISAT 6 01 Feb 09:47:50 09:51:57 31° 69° (ENE) 09:56:06 437.425
COMPASS 1 01 Feb 09:59:16 10:03:27 90° 38° (NE) 10:07:37 437.405
DELFI C3 01 Feb 09:59:20 10:02:52 29° 96° (E) 10:06:25 145.870
NANOSAT C BR1 01 Feb 10:00:48 10:04:11 24° 68° (ENE) 10:07:41 145.865
UKube-1 01 Feb 10:02:43 10:06:05 22° 94° (E) 10:09:31 .
HUMSAT D 01 Feb 10:03:36 10:03:41 10° 86° (E) 10:04:01 437.325/437.525
HO-68 01 Feb 10:08:29 10:15:39 77° 288° (WNW) 10:22:48 435.675
SO-50 01 Feb 10:14:24 10:18:56 72° 122° (ESE) 10:23:41 436.795
QB50P2 01 Feb 10:16:33 10:20:27 35° 70° (ENE) 10:24:24 145.880/145.840
BUGSAT 1 01 Feb 10:18:59 10:22:28 28° 69° (ENE) 10:26:04 437.445
DOVE 4 01 Feb 10:19:25 10:24:33 63° 286° (WNW) 10:29:23 437.250
BEESAT 2 01 Feb 10:19:37 10:23:32 38° 49° (NE) 10:27:27 435.950
AAUSAT CUBESAT 2 01 Feb 10:23:03 10:27:08 55° 286° (WNW) 10:31:11 437.432
GOMX 1 01 Feb 10:23:12 10:28:21 45° 290° (WNW) 10:33:11 467.674
ANTELSAT 01 Feb 10:23:26 10:28:08 72° 75° (ENE) 10:32:49 437.575/2403.000
ZACube-1 01 Feb 10:23:52 10:27:53 34° 96° (E) 10:31:47 437.345
RS-15 01 Feb 10:24:08 10:32:32 24° 9° (N) 10:41:17 29.354- 29.394
CANX-2 01 Feb 10:24:09 10:27:56 31° 290° (WNW) 10:31:39 2200.000
QB50P1 01 Feb 10:24:30 10:28:32 42° 72° (ENE) 10:32:37 145.935-145.965
DX 1 01 Feb 10:27:02 10:31:13 41° 99° (E) 10:35:24 434.975-435.025
TIGRISAT 01 Feb 10:29:07 10:33:49 80° 77° (ENE) 10:38:31 435.000
BEESAT 3 01 Feb 10:30:09 10:34:15 54° 53° (NE) 10:38:17 437.485
CUBEBUG 2 01 Feb 10:30:57 10:35:27 59° 100° (E) 10:39:46 437.445
AIST 2 01 Feb 10:33:19 10:36:55 25° 45° (NE) 10:40:30 435.215
FUNcube-1 01 Feb 10:34:32 10:38:44 43° 98° (E) 10:42:50 145.935
POLYITAN 1 01 Feb 10:41:21 10:45:37 66° 75° (ENE) 10:49:56 437.675
50 SAT 01 Feb 10:41:24 10:44:24 20° 93° (E) 10:47:26 437.505
BRITE-PL 01 Feb 10:45:46 10:50:11 23° 296° (WNW) 10:54:20 437.365/2234.400
CUTE 1.7 + AOD 2 01 Feb 10:48:20 10:51:29 20° 293° (WNW) 10:54:31 437.475
AIST 1 01 Feb 10:57:17 11:00:55 29° 91° (E) 11:04:38
PHONESAT 2.4 01 Feb 10:59:25 11:02:59 63° 183° (S) 11:06:35 2401.200-2431.200
POPSAT HIP 1 01 Feb 10:59:29 11:03:47 80° 256° (WSW) 11:08:08 437.405
DUCHIFAT 1 01 Feb 11:00:05 11:04:22 80° 258° (WSW) 11:08:42 145.980
Oscar 11 01 Feb 11:00:59 11:05:07 45° 288° (WNW) 11:09:13 145.826/435.025
UWE-3 01 Feb 11:03:47 11:08:16 73° 285° (WNW) 11:12:35 435.000/436.395/437.385
AISAT 01 Feb 11:07:42 11:12:02 44° 99° (E) 11:16:21 437.250
SEEDS 01 Feb 11:15:10 11:17:09 13° 296° (WNW) 11:18:57 437.485
VERMONT LUNAR 01 Feb 11:18:18 11:21:41 49° 191° (SSW) 11:25:05 437.305
CINEMA 3 01 Feb 11:18:59 11:23:06 28° 292° (WNW) 11:27:00 145.822/145.860
ESTCUBE 1 01 Feb 11:21:43 11:25:36 28° 95° (E) 11:29:33 437.505/2401.250
PCSat 01 Feb 11:22:39 11:25:11 13° 35° (NE) 11:27:54 145.827
UNISAT 6 01 Feb 11:24:39 11:28:45 28° 265° (W) 11:32:46 437.425
CUBEBUG 1 01 Feb 11:32:08 11:36:10 33° 96° (E) 11:40:13 437.445
VELOX 1 01 Feb 11:33:59 11:38:31 83° 102° (ESE) 11:43:01 145.980
DELFI C3 01 Feb 11:34:46 11:38:00 23° 292° (WNW) 11:41:08 145.870
GONETS M04 01 Feb 11:34:48 11:42:12 31° 67° (ENE) 11:49:48
HUMSAT D 01 Feb 11:35:52 11:40:05 70° 285° (WNW) 11:44:13 437.325/437.525
NANOSAT C BR1 01 Feb 11:36:06 11:39:58 32° 264° (W) 11:43:48 145.865
UKube-1 01 Feb 11:38:22 11:42:21 35° 290° (WNW) 11:46:18 .
QB50P2 01 Feb 11:53:10 11:56:30 21° 267° (W) 11:59:45 145.880/145.840
BUGSAT 1 01 Feb 11:54:31 11:57:59 25° 266° (W) 12:01:25 437.445
SO-50 01 Feb 11:56:40 12:00:04 19° 322° (NW) 12:03:27 436.795
HO-68 01 Feb 11:58:06 12:02:23 17° 307° (NW) 12:06:22 435.675
BEESAT 2 01 Feb 11:58:18 12:01:34 22° 247° (WSW) 12:04:43 435.950
ZACube-1 01 Feb 12:00:36 12:04:06 23° 293° (WNW) 12:07:27 437.345
QB50P1 01 Feb 12:01:42 12:04:41 18° 269° (W) 12:07:32 145.935-145.965
ANTELSAT 01 Feb 12:03:26 12:05:30 12° 273° (W) 12:07:18 437.575/2403.000
DX 1 01 Feb 12:03:59 12:07:13 20° 295° (WNW) 12:10:20 434.975-435.025
CUBEBUG 2 01 Feb 12:09:03 12:11:41 15° 297° (WNW) 12:14:07 437.445
BEESAT 3 01 Feb 12:09:32 12:12:00 15° 249° (WSW) 12:14:18 437.485
TIGRISAT 01 Feb 12:09:52 12:11:14 11° 273° (W) 12:12:19 435.000
AIST 2 01 Feb 12:11:40 12:15:40 38° 243° (WSW) 12:19:34 435.215
FUNcube-1 01 Feb 12:11:42 12:14:47 18° 295° (WNW) 12:17:42 145.935
50 SAT 01 Feb 12:15:58 12:19:37 32° 290° (WNW) 12:23:09 437.505
POLYITAN 1 01 Feb 12:20:32 12:22:07 11° 272° (W) 12:23:26 437.675
AIST 1 01 Feb 12:35:10 12:38:37 23° 288° (WNW) 12:42:03
PHONESAT 2.4 01 Feb 12:37:59 12:41:19 35° 199° (SSW) 12:44:40 2401.200-2431.200
RS-15 01 Feb 12:38:01 12:48:44 47° 41° (NE) 12:59:59 29.354- 29.394
SPROUT 01 Feb 12:39:36 12:43:46 44° 98° (E) 12:47:56 437.525
AISAT 01 Feb 12:45:06 12:48:23 19° 295° (WNW) 12:51:31 437.250
VERMONT LUNAR 01 Feb 12:56:51 12:59:23 19° 207° (SSW) 13:01:52 437.305
ESTCUBE 1 01 Feb 12:58:32 13:02:29 29° 291° (WNW) 13:06:22 437.505/2401.250
Oscar 19 01 Feb 13:02:17 13:07:21 57° 72° (ENE) 13:12:28 437.125/150
PCSat 01 Feb 13:04:24 13:09:49 63° 56° (ENE) 13:15:11 145.827
TISAT 1 01 Feb 13:04:32 13:08:52 81° 101° (E) 13:13:09 437.305
Gurwin Techsat 1B 01 Feb 13:06:30 13:09:46 17° 62° (ENE) 13:13:13 435.225
CUBEBUG 1 01 Feb 13:08:47 13:12:25 24° 293° (WNW) 13:15:59 437.445
VELOX 1 01 Feb 13:13:03 13:14:31 11° 299° (WNW) 13:15:46 145.980
AO-7 01 Feb 13:25:13 13:28:29 13° 44° (NE) 13:32:10 29.400- 29.500
ITAMSAT 1 01 Feb 13:26:42 13:31:20 35° 68° (ENE) 13:36:04 435.822/435.867
SWISSCUBE 01 Feb 13:30:13 13:34:08 25° 94° (E) 13:38:07 437.505
GONETS M04 01 Feb 13:31:09 13:39:40 60° 268° (W) 13:48:07
BEESAT 01 Feb 13:45:05 13:49:20 32° 96° (E) 13:53:39 436.000
ITUPSAT 1 01 Feb 13:51:07 13:55:32 36° 97° (E) 13:59:59 437.325
HORYU 2 01 Feb 14:00:47 14:03:09 15° 63° (ENE) 14:05:42 437.375
SPROUT 01 Feb 14:16:33 14:19:36 18° 294° (WNW) 14:22:31 437.525
PHONESAT 2.4 01 Feb 14:18:36 14:19:18 10° 213° (SSW) 14:19:53 2401.200-2431.200
STARS 01 Feb 14:32:24 14:34:13 13° 88° (E) 14:36:16 437.465
DANDE 01 Feb 14:39:13 14:44:38 29° 64° (ENE) 14:48:57 436.750
TISAT 1 01 Feb 14:43:01 14:44:07 11° 298° (WNW) 14:44:59 437.305
Oscar 19 01 Feb 14:43:33 14:47:09 18° 270° (W) 14:50:34 437.125/150
Gurwin Techsat 1B 01 Feb 14:43:57 14:49:14 69° 258° (WSW) 14:54:34 435.225
KKS-1 01 Feb 14:45:18 14:49:05 27° 94° (E) 14:52:54 437.445
PCSat 01 Feb 14:48:58 14:52:47 19° 253° (WSW) 14:56:25 145.827
CUSAT 1 01 Feb 14:49:09 14:54:39 38° 69° (ENE) 14:58:50 437.405
RS-15 01 Feb 14:50:32 15:01:42 62° 244° (WSW) 15:13:16 29.354- 29.394
ITAMSAT 1 01 Feb 15:06:22 15:10:54 30° 265° (W) 15:15:24 435.822/435.867
SWISSCUBE 01 Feb 15:07:43 15:12:07 36° 291° (WNW) 15:16:27 437.505
AO-7 01 Feb 15:11:35 15:19:34 53° 65° (ENE) 15:27:39 29.400- 29.500
BEESAT 01 Feb 15:23:02 15:27:09 28° 292° (WNW) 15:31:10 436.000
O/OREOS (USA 219) 01 Feb 15:24:10 15:27:45 25° 104° (ESE) 15:31:28 437.305
ITUPSAT 1 01 Feb 15:29:21 15:33:19 26° 293° (WNW) 15:37:12 437.325
JAS-2 01 Feb 15:32:46 15:36:51 24° 65° (ENE) 15:40:59 435.910
HORYU 2 01 Feb 15:34:56 15:39:24 62° 259° (W) 15:43:51 437.375
M-CUBED/EXP-1 PRIME 01 Feb 15:40:32 15:42:47 17° 99° (E) 15:45:11 437.505
